Temp
61 61 60 57 58 60 59 59 59 59 59 59 59 60 61 57 57 60 60 62 60 61 62 62 61 62 64 65 65 65 65 67 65 63 66 65 63 64 66 67 67 67 69
62 59 58 55 56 57 59 59 59 59 60 59 60 60 61 60 61 60 62 59 58 58 61 62 61 64 61 61 65 61 63 63 65 60 63 65 62 64 64 63 67 69 69
62 57 55 55 54 54 55 58 60 60 60 60 60 59 60 60 62 61 62 62 61 61 61 61 60 61 60 62 62 63 65 65 65 64 63 65 66 66 66 67 65 66 69
62 57 56 59 56 54 58 58 59 60 60 60 59 59 60 61 62 62 62 61 62 61 61 62 62 61 61 61 63 63 63 64 63 64 65 65 65 66 65 65 65 69 68
61 58 57 61 62 61 61 57 60 60 60 60 59 60 60 61 61 61 61 61 61 61 61 63 63 60 57 58 65 63 62 64 66 66 65 66 67 66 63 66 64 66 69
61 61 59 62 62 61 61 61 61 61 61 60 59 59 60 62 49 51 57 63 62 62 62 63 64 61 60 54 54 55 58 62 62 64 66 63 62 64 66 65 64 62 59
60 60 63 60 62 62 62 62 61 60 60 60 60 60 59 60 48 47 50 64 64 63 63 64 65 66 59 65 58 55 56 54 54 61 61 62 62 64 63 62 62 62 63
62 62 63 63 58 62 62 62 61 61 60 60 60 60 60 60 47 46 48 62 63 63 63 63 61 63 64 61 64 65 66 66 65 65 63 63 64 65 63 62 61 61 64
62 63 63 63 61 56 57 60 62 62 62 61 61 60 60 60 46 45 52 63 64 64 65 65 64 63 51 47 64 64 65 67 61 54 51 49 47 47 50 63 64 63 62
62 63 64 64 63 62 60 61 62 63 63 65 63 61 54 60 47 45 51 67 63 66 66 66 53 56 46 46 63 64 63 64 64 66 67 62 58 59 50 62 66 64 64
63 64 64 64 60 62 60 61 60 62 62 62 61 62 61 58 59 45 45 63 65 66 69 69 69 45 45 45 45 63 60 56 61 65 67 69 68 68 69 67 63 64 63
63 63 63 64 62 64 61 61 60 60 60 60 60 62 65 62 50 50 44 45 49 63 65 67 62 44 44 45 54 44 45 49 68 67 66 66 66 67 67 66 63 64 66
63 62 58 63 59 64 62 62 63 61 62 62 63 63 63 65 64 48 46 45 48 61 68 55 46 45 46 50 46 46 52 66 66 65 64 65 65 65 63 65 66 65 64
62 62 62 60 62 60 66 65 63 63 63 64 64 63 63 64 65 64 64 65 55 59 55 65 56 51 46 54 61 62 65 64 63 63 63 65 67 67 67 66 65 65 64
62 63 62 61 62 65 66 64 65 63 62 65 65 65 64 64 63 49 48 59 64 58 54 66 67 67 67 67 67 66 66 65 63 63 63 64 65 66 66 65 65 64 62
61 59 64 65 66 67 66 66 47 46 44 43 43 52 65 50 43 41 41 41 42 42 61 66 66 66 65 65 64 64 65 60 62 63 63 63 63 64 64 66 65 63 61
61 63 65 62 66 64 65 65 65 58 43 42 41 41 41 45 41 41 40 41 42 45 64 65 64 65 65 64 63 63 61 62 59 63 63 62 63 63 62 63 63 62 61
63 51 63 66 67 66 67 66 67 66 67 68 46 45 42 40 40 40 41 44 63 61 65 64 65 66 65 63 62 61 61 61 61 61 62 61 62 62 62 62 63 60 60
64 66 66 67 67 63 65 67 68 67 67 67 67 53 51 44 43 42 43 64 64 64 66 65 67 66 64 63 61 60 57 59 57 59 61 61 61 62 61 63 63 46 49
64 53 51 65 67 65 68 66 68 67 67 68 68 68 68 59 66 67 66 65 65 66 66 65 66 65 64 63 61 60 59 60 60 60 60 60 61 61 61 61 62 60 60
66 66 54 66 67 67 68 65 67 68 69 70 69 66 42 65 67 67 67 67 66 66 65 65 66 66 66 64 62 61 60 60 60 60 60 61 61 60 61 62 62 62 61
66 66 66 67 67 66 67 69 68 69 69 69 70 67 36 62 67 67 67 66 68 67 67 65 66 67 67 65 63 61 60 59 59 60 60 61 61 61 61 62 62 61 61
66 66 66 66 66 59 65 68 69 69 70 70 70 70 68 67 68 68 67 67 67 66 67 65 65 66 66 64 63 62 60 59 59 59 58 59 59 60 61 60 60 60 60
65 65 66 67 67 67 67 68 69 59 67 70 70 69 69 70 69 68 67 68 67 67 66 65 65 65 63 61 63 62 61 59 59 58 56 57 57 58 60 60 61 59 60
59 64 64 65 66 65 65 67 68 69 67 68 61 61 68 67 69 70 69 69 68 67 66 65 65 63 62 60 61 59 48 35 46 38 54 56 57 57 58 60 60 60 59
56 60 63 63 65 66 67 66 67 68 68 69 69 69 70 70 70 70 70 69 68 67 67 66 65 63 62 61 60 45 35 34 42 34 49 56 58 59 60 59 58 60 58
MSLP
1027.51 1027.24 1027.04 1026.85 1026.39 1025.83 1025.62 1025.37 1025.06 1024.72 1024.53 1024.22 1023.85 1023.46 1023.13 1022.89 1022.43 1021.91 1021.84 1021.85 1021.76 1021.66 1021.52 1021.43 1021.50 1021.50 1021.32 1021.40 1021.45 1021.48 1021.35 1021.15 1020.73 1021.42 1021.93 1022.18 1022.24 1022.13 1021.97 1021.90 1021.80 1021.61 1021.30
1027.44 1027.37 1027.10 1026.90 1026.51 1026.05 1025.59 1025.35 1025.21 1024.87 1024.64 1024.43 1024.11 1023.78 1023.48 1023.17 1022.57 1022.41 1022.32 1022.46 1022.30 1022.17 1021.92 1021.78 1021.74 1021.73 1021.87 1021.99 1021.81 1021.91 1021.71 1021.75 1021.40 1021.38 1021.81 1021.84 1022.01 1021.93 1021.81 1021.63 1021.21 1020.95 1020.73
1027.48 1027.42 1027.14 1026.80 1026.52 1026.11 1025.86 1025.47 1025.15 1024.94 1024.62 1024.43 1024.26 1024.03 1023.74 1023.50 1023.21 1023.09 1022.90 1022.70 1022.56 1022.44 1022.32 1022.19 1022.16 1022.09 1022.11 1022.14 1022.13 1022.05 1022.01 1022.01 1021.89 1021.64 1021.60 1021.86 1021.70 1021.59 1021.18 1020.89 1020.80 1020.52 1020.18
1027.47 1027.36 1027.06 1026.53 1026.34 1026.04 1025.76 1025.53 1025.27 1024.95 1024.64 1024.54 1024.45 1024.22 1024.02 1023.71 1023.56 1023.46 1023.26 1023.06 1022.88 1022.76 1022.66 1022.54 1022.47 1022.45 1022.48 1022.49 1022.37 1022.34 1022.26 1021.98 1021.95 1021.71 1021.47 1021.38 1021.28 1021.08 1020.92 1020.48 1019.94 1019.76 1019.53
1027.43 1027.21 1026.95 1026.43 1026.04 1025.79 1025.60 1025.56 1025.17 1024.91 1024.77 1024.71 1024.56 1024.33 1024.08 1023.88 1023.86 1023.88 1023.58 1023.33 1023.07 1022.88 1022.85 1022.69 1022.57 1022.76 1022.88 1022.77 1022.44 1022.44 1022.40 1022.10 1021.76 1021.42 1021.08 1020.92 1020.57 1020.35 1020.21 1020.26 1020.00 1019.58 1019.09
1027.28 1026.94 1026.82 1026.24 1025.95 1025.74 1025.63 1025.49 1025.27 1025.07 1024.97 1024.87 1024.76 1024.57 1024.33 1024.21 1024.86 1024.55 1023.82 1023.45 1023.22 1022.97 1022.75 1022.66 1022.47 1022.56 1022.59 1022.88 1022.80 1022.66 1022.57 1022.12 1021.86 1021.42 1020.96 1020.63 1020.51 1020.44 1020.28 1020.21 1020.00 1019.42 1019.04
1027.15 1026.93 1026.39 1026.40 1025.98 1025.82 1025.68 1025.50 1025.38 1025.27 1025.14 1025.01 1024.90 1024.76 1024.61 1024.58 1025.01 1024.77 1024.34 1023.57 1023.17 1022.94 1022.79 1022.63 1022.44 1022.34 1022.64 1022.32 1022.43 1022.32 1022.24 1022.20 1022.24 1021.81 1021.21 1020.77 1020.53 1020.41 1020.55 1020.32 1020.06 1019.78 1019.08
1026.94 1026.68 1026.41 1026.26 1026.26 1025.84 1025.63 1025.47 1025.43 1025.34 1025.19 1025.06 1024.95 1024.86 1024.69 1024.68 1025.02 1024.76 1024.38 1023.49 1023.27 1023.03 1022.82 1022.63 1022.60 1022.48 1022.52 1022.67 1022.31 1021.77 1021.47 1021.34 1021.28 1021.26 1021.01 1020.81 1020.61 1020.49 1020.48 1020.43 1020.26 1019.88 1019.31
1026.83 1026.55 1026.34 1026.16 1025.97 1026.00 1025.73 1025.48 1025.34 1025.24 1025.10 1025.02 1024.99 1024.90 1024.78 1024.66 1025.17 1024.88 1024.18 1023.63 1023.16 1022.81 1022.52 1022.18 1022.31 1022.56 1022.66 1022.83 1022.46 1021.82 1021.36 1020.91 1020.92 1021.23 1021.27 1021.23 1021.21 1021.16 1021.01 1020.18 1019.48 1019.14 1018.40
1026.72 1026.52 1026.32 1026.14 1025.86 1025.64 1025.60 1025.43 1025.30 1025.11 1024.97 1024.87 1024.82 1024.87 1024.81 1024.62 1025.04 1025.03 1024.36 1023.64 1023.17 1022.63 1022.31 1022.02 1022.42 1022.81 1022.87 1022.72 1022.52 1022.05 1021.53 1021.20 1020.82 1020.44 1020.41 1020.37 1020.51 1020.45 1020.75 1020.15 1019.51 1018.84 1018.35
1026.75 1026.43 1026.20 1026.03 1025.86 1025.69 1025.59 1025.41 1025.28 1025.00 1024.83 1024.74 1024.62 1024.59 1024.52 1024.61 1024.30 1024.88 1024.78 1024.16 1023.37 1022.65 1022.03 1021.90 1022.16 1022.80 1022.68 1022.62 1022.73 1022.57 1022.38 1022.25 1021.18 1020.56 1020.10 1019.88 1019.94 1019.86 1019.70 1019.87 1019.87 1019.45 1018.81
1026.61 1026.29 1026.00 1025.81 1025.53 1025.35 1025.27 1025.17 1025.05 1024.90 1024.62 1024.43 1024.34 1024.07 1023.93 1024.02 1024.39 1024.17 1024.59 1024.47 1023.99 1023.37 1022.70 1022.68 1023.03 1023.19 1023.02 1022.86 1022.33 1022.79 1022.51 1022.31 1021.12 1020.42 1019.99 1019.74 1019.64 1019.60 1019.70 1019.73 1019.89 1019.62 1019.32
1026.33 1026.06 1026.01 1025.62 1025.42 1025.05 1024.94 1024.67 1024.54 1024.64 1024.34 1024.12 1023.90 1023.70 1023.64 1023.70 1023.58 1024.05 1024.11 1024.11 1023.72 1023.53 1023.13 1023.39 1023.19 1023.09 1022.91 1022.79 1022.95 1022.68 1021.79 1021.55 1020.97 1020.41 1020.16 1019.96 1020.01 1020.07 1020.13 1019.74 1019.53 1019.44 1019.26
1026.02 1025.79 1025.62 1025.39 1025.05 1024.87 1024.45 1024.33 1024.28 1024.19 1024.14 1024.06 1023.88 1023.76 1023.71 1023.72 1023.67 1023.67 1023.47 1022.78 1022.98 1023.22 1023.18 1022.85 1022.82 1023.21 1023.03 1022.87 1022.54 1022.02 1021.80 1021.69 1021.33 1020.82 1020.48 1020.26 1020.01 1019.72 1019.61 1019.65 1019.23 1019.05 1018.61
1025.75 1025.52 1025.30 1025.15 1024.76 1024.25 1023.99 1024.04 1023.98 1024.07 1024.04 1024.05 1024.10 1024.07 1023.94 1023.74 1023.97 1024.81 1024.98 1024.25 1023.83 1023.63 1023.53 1022.84 1022.59 1022.40 1022.20 1022.05 1021.92 1021.83 1021.66 1021.48 1021.18 1020.98 1020.62 1020.24 1019.81 1019.59 1019.46 1019.65 1019.38 1019.07 1018.70
1025.34 1025.21 1024.82 1024.55 1024.13 1023.76 1023.49 1023.37 1023.79 1024.17 1024.30 1024.53 1024.60 1024.58 1024.22 1024.14 1024.26 1024.58 1024.71 1024.48 1024.05 1023.87 1023.28 1022.33 1021.95 1021.93 1021.81 1021.77 1021.66 1021.54 1021.43 1021.52 1021.36 1021.13 1020.78 1020.48 1020.03 1019.68 1019.61 1019.43 1019.33 1019.17 1018.91
1025.08 1024.75 1024.35 1024.23 1023.69 1023.48 1023.16 1022.95 1022.93 1023.55 1023.92 1024.16 1024.33 1024.45 1024.52 1024.01 1024.30 1024.33 1024.27 1024.18 1023.80 1023.74 1022.76 1022.03 1021.74 1021.69 1021.71 1021.75 1021.73 1021.67 1021.57 1021.69 1021.78 1021.17 1020.91 1020.66 1020.31 1019.87 1020.03 1019.51 1019.39 1019.24 1019.03
1024.59 1024.53 1024.26 1023.73 1023.31 1023.00 1022.62 1022.41 1022.42 1022.48 1022.55 1022.87 1023.67 1023.91 1023.73 1023.96 1023.96 1024.00 1023.92 1023.65 1022.97 1022.74 1022.15 1021.73 1021.59 1021.67 1021.75 1021.77 1021.81 1021.81 1021.78 1021.71 1021.55 1021.37 1021.04 1020.84 1020.53 1020.10 1019.69 1019.47 1019.39 1019.44 1019.25
1023.89 1023.61 1023.44 1023.24 1022.94 1022.71 1022.44 1021.92 1021.71 1021.72 1021.78 1021.88 1022.22 1022.95 1023.08 1023.09 1023.20 1023.31 1023.33 1022.82 1022.23 1021.89 1021.69 1021.61 1021.69 1021.72 1021.75 1021.86 1021.97 1022.03 1022.21 1021.88 1021.93 1021.55 1021.14 1020.91 1020.64 1020.23 1019.78 1019.55 1019.43 1019.70 1019.59
1023.29 1023.24 1023.30 1022.88 1022.35 1022.26 1021.64 1021.41 1021.10 1020.99 1020.92 1020.94 1021.08 1021.35 1021.87 1022.38 1022.05 1022.00 1022.10 1021.95 1021.70 1021.49 1021.46 1021.49 1021.58 1021.69 1021.73 1021.83 1021.95 1022.04 1021.94 1021.74 1021.62 1021.45 1021.21 1020.99 1020.71 1020.35 1019.87 1019.65 1019.49 1019.39 1019.27
1022.49 1022.36 1022.53 1022.27 1021.79 1021.60 1021.33 1021.13 1020.65 1020.46 1020.13 1020.07 1020.23 1020.63 1021.20 1021.25 1020.89 1020.93 1021.03 1021.08 1021.12 1021.04 1021.15 1021.26 1021.29 1021.41 1021.53 1021.73 1021.82 1021.79 1021.74 1021.63 1021.53 1021.42 1021.13 1020.87 1020.67 1020.27 1020.07 1019.77 1019.57 1019.39 1019.32
1021.87 1021.60 1021.46 1021.27 1021.23 1021.18 1020.87 1020.53 1020.25 1019.92 1019.66 1019.55 1019.58 1019.97 1020.76 1020.74 1020.37 1020.29 1020.37 1020.48 1020.51 1020.72 1020.82 1021.09 1021.00 1021.11 1021.34 1021.48 1021.60 1021.69 1021.64 1021.55 1021.47 1021.30 1021.10 1020.87 1020.59 1020.32 1020.04 1019.70 1019.51 1019.36 1019.38
1020.99 1020.87 1020.74 1020.65 1020.61 1020.72 1020.43 1020.02 1019.67 1019.50 1019.21 1019.06 1019.04 1019.21 1019.48 1019.55 1019.55 1019.65 1019.71 1019.83 1019.95 1020.16 1020.41 1020.70 1020.77 1020.79 1021.14 1021.55 1021.78 1021.70 1021.56 1021.51 1021.53 1021.51 1021.24 1020.90 1020.63 1020.33 1020.00 1019.72 1019.54 1019.37 1019.46
1020.23 1019.99 1019.86 1019.76 1019.67 1019.65 1019.54 1019.32 1019.08 1018.97 1018.84 1018.54 1018.38 1018.62 1018.71 1018.64 1018.78 1018.92 1019.11 1019.21 1019.37 1019.62 1019.97 1020.25 1020.42 1020.43 1020.90 1021.30 1021.42 1021.54 1021.61 1021.73 1021.73 1021.51 1021.47 1021.11 1020.74 1020.31 1019.99 1019.72 1019.46 1019.36 1019.32
1019.74 1019.25 1019.08 1018.97 1018.86 1018.94 1018.98 1018.74 1018.51 1018.21 1018.37 1018.17 1018.55 1018.47 1018.22 1018.28 1018.18 1018.14 1018.28 1018.43 1018.65 1018.87 1019.19 1019.59 1019.87 1020.14 1020.50 1020.80 1020.97 1021.22 1021.59 1022.14 1022.12 1022.17 1021.59 1021.08 1020.57 1020.34 1020.04 1019.66 1019.38 1019.18 1019.21
1019.10 1018.54 1018.21 1018.23 1018.00 1018.02 1018.02 1018.02 1017.87 1017.77 1017.61 1017.56 1017.60 1017.61 1017.48 1017.38 1017.42 1017.49 1017.57 1017.79 1017.98 1018.21 1018.49 1018.85 1019.17 1019.62 1019.98 1020.34 1020.65 1021.15 1021.71 1021.96 1021.87 1022.00 1021.63 1020.76 1020.17 1019.84 1019.61 1019.42 1019.26 1019.02 1018.99
Wind_Speed
9 9 9 7 8 7 6 6 7 6 6 7 8 8 8 8 6 7 8 9 8 7 7 7 8 6 5 4 4 3 3 2 1 4 0 1 3 3 3 4 4 5 5
9 8 8 6 7 7 7 6 6 6 6 6 7 6 7 7 8 9 8 6 7 6 6 6 6 4 5 4 3 4 5 3 1 2 2 1 4 3 5 5 4 5 6
8 7 7 6 6 6 6 7 6 6 7 6 6 6 7 7 7 6 7 7 7 7 7 6 5 5 5 4 3 3 2 2 2 1 1 1 2 2 3 2 4 4 5
7 7 7 8 5 4 5 6 6 6 7 6 6 6 6 6 6 6 6 6 6 6 6 6 6 6 5 4 2 2 2 1 1 1 1 0 2 0 3 4 4 4 5
7 7 8 7 7 6 6 5 6 6 6 6 6 5 5 5 5 5 5 5 5 5 5 4 5 5 3 3 2 1 1 2 1 1 1 1 2 3 4 4 5 5 3
7 7 6 8 7 6 5 6 5 6 6 6 6 5 6 4 7 7 6 3 3 4 4 4 3 0 2 2 4 7 6 4 4 4 2 4 5 5 4 5 5 6 3
6 7 7 7 6 6 5 5 5 5 4 5 5 5 5 5 9 7 6 2 3 3 3 2 2 0 3 3 4 8 9 10 11 7 7 6 7 5 6 6 5 6 7
6 6 6 6 6 5 4 4 4 3 4 4 5 5 5 5 9 7 5 4 3 3 4 4 4 3 1 5 5 5 5 4 3 5 7 9 8 8 8 7 8 8 8
5 6 6 6 5 4 3 4 3 3 3 3 4 5 5 5 7 8 6 3 3 5 4 5 5 5 4 3 6 5 6 4 2 3 6 8 9 9 9 6 5 6 6
5 6 6 6 6 6 5 4 3 3 3 2 3 3 3 5 3 7 7 4 4 4 5 5 6 5 6 4 5 5 7 6 6 6 3 0 1 4 4 4 5 6 7
6 6 6 6 6 5 5 3 3 3 4 4 4 3 4 4 4 5 6 5 5 6 4 3 4 7 4 3 2 4 5 7 4 5 5 3 0 1 2 2 4 5 6
6 7 6 6 5 4 5 4 3 4 4 4 4 5 3 4 2 3 6 4 6 5 4 3 5 6 7 6 2 5 5 6 4 4 5 4 4 3 4 4 4 4 3
6 6 6 6 6 6 5 5 4 3 3 3 4 4 4 4 3 2 7 6 4 4 3 3 1 1 2 4 5 5 5 5 5 4 5 5 4 4 5 2 1 3 3
7 7 6 6 7 5 5 4 4 4 3 2 2 3 3 3 3 5 6 5 3 5 4 2 2 3 2 1 2 2 4 5 5 5 5 5 4 3 3 4 5 7 6
6 6 7 5 7 7 5 5 4 5 4 3 2 2 2 2 3 4 4 6 5 2 5 4 4 3 3 3 2 3 4 5 5 5 5 5 5 4 3 3 4 6 6
6 5 6 6 6 6 7 7 9 10 6 9 6 5 2 8 8 6 5 6 6 5 5 4 4 4 3 4 4 5 4 5 5 5 4 4 5 5 5 3 4 5 6
7 7 6 6 7 6 7 6 6 5 9 11 10 10 10 12 9 9 6 6 3 4 5 5 5 3 3 3 4 5 5 5 6 5 5 5 5 5 4 4 4 5 6
8 9 7 7 6 7 7 7 5 5 4 3 9 11 12 11 10 9 7 4 4 4 4 4 3 2 2 4 4 5 5 4 4 4 4 4 5 5 5 4 3 5 6
8 7 7 6 7 7 8 7 5 5 4 4 4 6 7 5 6 6 6 5 4 4 3 3 2 2 3 4 4 4 4 4 4 5 4 4 4 5 5 4 3 1 4
9 11 8 7 7 7 6 6 5 5 4 4 4 3 3 4 5 4 4 4 4 3 3 3 2 3 3 4 4 3 4 4 3 4 4 4 4 5 5 4 4 5 5
7 8 6 7 7 6 7 6 5 6 5 4 4 2 1 4 5 4 4 4 4 4 3 3 3 3 3 2 3 3 4 4 3 4 4 3 4 5 5 4 4 4 5
9 9 9 8 7 7 6 6 6 5 6 5 4 2 6 5 6 5 5 5 5 4 3 4 4 3 2 3 3 3 4 4 4 4 4 4 4 5 4 4 4 4 4
10 11 11 9 9 8 8 8 7 6 5 4 4 5 5 6 6 6 6 5 5 5 5 5 5 4 3 2 2 4 4 4 4 4 5 5 4 5 4 4 4 4 4
12 12 12 11 10 9 9 10 9 8 8 7 5 5 7 6 6 7 6 6 6 6 5 5 5 6 4 4 3 4 3 3 4 5 6 6 6 4 4 4 4 5 4
9 12 12 12 12 10 10 11 10 8 6 5 5 4 6 6 7 7 6 6 6 7 7 6 6 8 9 8 5 4 2 1 6 5 5 6 7 7 6 5 5 4 4
9 10 11 10 11 11 10 10 10 9 8 8 7 7 8 7 7 8 7 7 6 7 8 6 8 10 9 8 7 2 3 3 5 4 6 7 6 6 5 6 6 5 4
Wind_Direction
338 339 331 337 324 343 354 358 2 357 0 6 2 5 15 12 5 55 68 63 59 67 65 70 73 69 71 78 82 82 87 359 55 120 209 131 266 289 289 268 259 265 249
345 340 335 330 336 352 0 6 358 2 8 1 1 10 21 26 14 52 53 50 51 53 56 64 63 64 68 64 68 61 65 56 9 94 83 172 246 268 278 274 268 261 268
344 339 327 332 356 356 357 357 0 359 4 5 9 17 21 25 31 46 41 41 45 49 49 56 63 68 70 70 69 95 81 80 57 14 17 263 273 290 312 269 300 309 266
349 343 335 346 352 336 348 349 3 354 14 21 24 26 24 31 37 36 36 44 48 54 58 64 69 67 70 84 100 75 47 28 68 262 191 246 268 1 298 322 341 338 334
341 341 338 352 356 345 357 2 357 21 29 31 32 35 29 37 29 19 39 47 50 61 63 61 62 38 29 359 333 109 193 217 224 325 19 283 307 298 333 354 310 335 296
341 350 341 354 11 14 19 23 32 43 46 44 40 33 41 47 3 4 344 41 45 48 52 57 55 137 100 305 279 271 281 271 285 305 305 310 295 295 308 313 313 314 333
341 334 13 1 16 24 19 25 37 36 28 29 23 13 18 7 355 329 319 299 331 356 342 329 307 315 265 302 213 235 230 233 246 290 285 284 298 305 309 294 289 293 292
338 343 358 13 4 14 16 29 18 2 6 8 12 11 9 29 358 346 322 287 292 288 277 273 271 287 325 320 326 337 337 313 278 252 254 276 283 297 291 287 298 289 274
344 341 343 349 347 359 14 330 356 335 344 6 7 6 10 24 5 356 319 291 286 280 270 267 287 308 36 327 311 335 342 5 144 235 269 288 290 285 270 278 264 279 313
332 324 326 343 348 356 345 340 329 293 307 316 335 351 360 346 49 356 347 328 316 307 281 276 219 315 344 342 319 338 332 2 342 346 356 230 247 68 98 250 327 322 329
310 306 318 334 331 330 327 306 307 306 288 281 290 300 306 332 334 358 350 322 333 325 337 349 20 12 43 53 302 349 343 324 335 322 327 342 190 101 60 22 344 322 330
307 304 320 326 324 315 304 297 289 297 291 288 298 287 299 324 319 349 335 320 325 305 341 28 68 48 66 44 343 358 314 271 326 336 348 359 354 11 20 11 8 324 319
306 310 306 319 313 318 305 302 267 256 304 312 295 300 311 326 314 317 312 325 308 288 342 32 27 157 222 148 58 354 306 355 342 345 354 357 349 350 313 318 292 341 266
301 303 307 314 321 311 307 297 267 255 266 300 332 317 313 313 335 357 339 317 243 238 187 191 18 357 16 9 261 17 17 6 350 344 342 336 324 326 338 357 347 357 337
284 294 294 305 299 315 309 301 273 236 240 264 293 320 302 303 32 24 327 328 321 30 299 246 251 267 303 341 341 355 356 349 350 343 334 335 335 331 352 357 358 349 346
272 283 291 301 311 302 316 313 216 247 217 232 260 259 255 251 291 306 309 306 315 237 253 280 283 291 320 342 345 342 339 338 346 327 326 328 331 334 339 339 343 352 352
263 279 286 282 299 306 305 302 304 196 224 227 229 237 230 270 288 286 299 301 302 207 277 293 288 296 332 334 333 333 333 344 318 324 327 332 330 328 306 334 344 352 358
254 256 273 280 292 296 301 297 284 278 285 257 213 230 229 242 255 267 270 278 260 246 286 283 279 302 322 326 328 332 332 331 334 327 321 330 332 327 328 328 332 353 351
252 256 266 275 286 300 291 290 266 267 273 284 270 201 204 219 244 221 208 265 299 299 296 269 291 305 315 317 325 326 325 330 329 321 322 329 337 325 331 324 331 295 299
251 250 261 274 283 294 293 286 264 249 263 268 289 269 210 205 228 223 227 249 268 285 281 271 270 288 303 320 319 315 301 306 316 314 326 320 329 320 332 326 328 335 349
253 252 237 261 265 279 290 293 267 268 265 271 278 248 164 254 275 260 262 241 253 261 250 253 254 271 303 302 298 299 302 305 299 308 314 315 324 326 332 315 316 330 344
244 250 251 254 263 268 269 278 280 269 265 269 283 226 166 228 251 251 246 243 238 236 239 238 248 253 284 298 314 305 306 309 302 297 306 308 310 323 322 319 311 325 335
238 245 247 250 253 258 262 252 262 273 271 262 267 266 222 234 242 248 248 242 228 222 212 218 233 230 223 240 263 290 302 312 317 311 299 307 304 310 318 322 322 315 335
248 241 241 246 248 250 256 262 256 248 273 268 266 278 260 247 234 238 241 236 230 222 216 215 223 233 210 228 236 256 257 287 302 298 294 297 294 263 294 295 305 321 303
241 248 241 244 245 243 250 251 257 247 252 261 275 246 262 251 250 243 232 221 225 222 215 213 215 217 215 218 241 263 70 162 279 336 288 282 282 275 279 289 289 304 288
239 240 244 244 244 241 242 248 249 257 259 261 263 264 269 263 259 250 238 226 219 221 223 212 213 215 211 211 220 146 141 235 266 246 287 277 278 278 270 278 265 284 298